Location: Lugny
(46.4722°N, 4.8100°E)
Time: 17:35:27
(UTC+00:00)

Daily predictions for brighter satellites

Satellite Brightness Start Highest point End
(mag) Time Altitude Azimuth Time Altitude Azimuth Time Altitude Azimuth
Cosmos 2360 4.4 17:42:05 10° S 17:47:34 52° ESE 17:53:07 10° NE
SL-24 R/B - RUBIN 2 4.3 17:41:56 10° NW 17:47:51 83° SW 17:53:00 10° SSE
ERS-2 3.3 17:46:58 10° NE 17:49:59 23° E 17:52:58 10° SSE
USA 234 3.7 17:44:19 10° ENE 17:50:36 47° SE 17:56:51 10° SSW
MOS 1 Rocket 3.4 17:46:27 10° NNE 17:51:18 81° ESE 17:56:26 10° S
SL-16 R/B 4.0 17:51:24 10° E 17:51:58 10° E 17:52:31 10° E
IRS-1C Rocket 4.1 17:47:33 10° SSE 17:52:44 64° ENE 17:57:58 10° N
Okean O Rocket 3.2 17:52:20 10° SSW 17:56:26 40° W 18:00:33 10° NNW
Cosmos 2369 3.8 17:52:52 10° S 17:58:26 62° ESE 18:04:02 10° NNE
PSLV R/B 4.4 17:55:03 10° NNE 17:58:55 37° E 18:02:43 10° SSE
USA 305 3.6 17:55:04 10° SSW 17:59:02 38° SE 18:03:00 10° ENE
Cosmos 1607 4.2 17:56:05 10° SW 18:02:29 83° NW 18:09:02 10° NE
Meteor 1-10 Rocket 4.3 17:59:54 10° N 18:05:42 90° E 18:11:22 10° S
SeaSat 1 2.6 18:01:18 10° NE 18:06:09 54° ESE 18:10:58 10° SSW
CZ-4 R/B 1.2 18:02:44 10° SSE 18:06:33 67° ENE 18:10:24 10° N
USA 307 3.4 18:02:47 10° SSW 18:06:49 41° SE 18:10:34 12° ENE
SKYMED 2 3.8 18:03:51 10° N 18:08:13 74° WNW 18:12:32 10° SSW
Cosmos 2263 Rocket 2.8 18:03:07 10° NNW 18:08:14 35° NE 18:13:18 10° ESE
Cosmos 2074 Rocket 4.5 18:06:53 10° SSE 18:12:32 37° E 18:18:13 10° NNE
FALCON 9 DEB 3.4 18:10:04 10° SW 18:13:06 43° SE 18:15:24 16° ENE
USA 306 3.2 18:09:03 10° SSW 18:13:10 48° SE 18:16:44 13° ENE
Cosmos 2227 Rocket 3.7 18:10:43 10° NW 18:16:00 41° WSW 18:21:14 10° S
USA 308 3.2 18:12:55 10° SW 18:17:03 49° SE 18:20:27 14° ENE
SAR-Lupe-1 4.4 18:13:48 10° NNE 18:17:16 44° E 18:20:43 10° S
Cosmos 1743 Rocket 3.9 18:14:47 10° SSW 18:19:07 72° W 18:23:32 10° N
Cosmos 1805 Rocket 3.5 18:15:53 10° S 18:20:10 62° E 18:24:32 10° NNE
H-2A R/B 4.1 18:17:10 10° N 18:20:41 28° WNW 18:24:10 10° SW
Cosmos 1850 Rocket 4.4 18:17:27 10° NNW 18:22:37 68° WSW 18:27:45 10° S
Cosmos 2184 Rocket 4.2 18:19:21 10° SSE 18:25:06 44° E 18:30:55 10° NNE
Meteor 1-27 Rocket 3.6 18:20:03 10° N 18:25:37 82° E 18:31:09 10° SSE
H-2A R/B 2.2 18:20:50 10° SSE 18:26:15 86° WSW 18:31:45 10° NNW
ARGOS 3.1 18:21:42 10° SSE 18:27:04 70° ENE 18:32:30 10° N
Cosmos 2228 Rocket 3.4 18:24:07 10° NNW 18:28:39 72° W 18:33:07 10° S
SJ-6B 4.2 18:28:39 19° E 18:29:49 22° ENE 18:33:00 10° NNE
OBJECT-B 3.1 18:32:13 11° NE 18:32:13 11° NE 18:32:31 10° NNE
Cosmos 2278 3.7 18:25:10 10° SSW 18:30:47 70° ESE 18:36:29 10° NNE
Cosmos 1271 Rocket 3.0 18:27:48 10° N 18:31:21 40° ENE 18:34:53 10° SE
FALCON 9 DEB 2.8 18:28:38 10° SW 18:31:47 72° SSE 18:33:30 25° ENE
COSMOS 2455 2.8 18:25:46 10° NNW 18:31:50 81° ENE 18:37:51 10° SE
SL-08 RB Rocket 3.8 18:27:34 10° SSE 18:31:55 53° ENE 18:36:20 10° N
GP-B 4.2 18:33:07 20° ESE 18:34:31 23° ENE 18:38:02 10° NNE
HJ-1C 3.2 18:31:23 10° SSE 18:34:43 78° ENE 18:38:03 10° N
Cosmos 1461 4.3 18:32:51 10° SSE 18:36:33 23° ESE 18:37:22 22° E
Okean 1 4.3 18:34:34 10° NNE 18:38:02 27° ENE 18:38:49 25° E
CZ-2C R/B 2.8 18:32:50 10° NNE 18:38:18 55° E 18:43:37 10° S
Cosmos 1689 Rocket 1.9 18:35:40 10° NNE 18:38:33 83° WNW 18:41:25 10° SSW
CSL-04 Debris 4.1 18:34:56 10° SSE 18:40:20 80° ENE 18:45:49 10° NNW
Cosmos 1666 Rocket 3.7 18:37:54 10° SSE 18:42:05 49° E 18:46:17 10° NNE
ATLAS 5 CENTAUR R/B 3.9 18:25:43 10° SW 18:42:13 62° NW 18:46:29 10° NE
Cosmos 2084 3.5 18:38:04 10° SW 18:42:17 78° NW 18:46:18 12° NE
Cosmos 1862 Rocket 4.1 18:38:53 10° N 18:43:03 36° ENE 18:45:35 20° SE
BREEZE-M DEB (TANK) 1.9 18:42:42 10° W 18:44:53 58° N 18:46:16 28° ENE
Cosmos 1844 Rocket 4.1 18:41:58 10° N 18:45:57 19° NE 18:47:04 18° ENE
Cosmos 1331 Rocket 4.0 18:40:46 10° SSW 18:46:04 88° ESE 18:51:22 10° NNE
Cosmos 2181 Rocket 4.4 18:39:48 10° NNW 18:46:14 71° W 18:52:36 10° S
Gbstr 26 Del rocket 3.3 18:42:10 10° SW 18:46:30 62° SE 18:49:30 25° ENE
NOSS 2-1 (C) 4.3 18:41:56 10° NW 18:46:58 86° SW 18:54:04 10° SE
CSL-04 Rocket 3.7 18:42:09 10° SSE 18:47:43 85° ENE 18:53:18 10° NNW
Cosmos 292 Rocket 4.5 18:44:41 10° SW 18:49:20 55° WNW 18:54:02 10° NNE
TSX-5 3.8 18:45:24 10° NNW 18:49:58 82° WSW 18:52:49 16° SSE
NOSS 2-1 (D) 4.4 18:48:02 10° NW 18:53:04 79° SW 19:00:15 10° SSE
FALCON 9 DEB 2.9 18:53:05 10° WSW 18:56:16 82° NNW 18:56:59 50° NE
YAOGAN 1 3.9 18:52:22 10° S 18:56:28 42° W 19:00:36 10° NNW
Helios 1A Rocket 3.3 18:52:51 10° S 18:56:54 64° WSW 19:00:57 10° NNW
Okean-O 3.9 18:53:36 10° S 18:57:49 43° W 19:02:03 10° NNW
Cosmos 220 Rocket 4.5 18:56:57 10° SW 19:01:06 59° WNW 19:05:19 10° NNE
SL-4 R/B 2.2 18:58:56 10° W 19:02:23 48° NNW 19:03:19 36° NNE
FALCON 9 DEB 3.2 19:01:35 10° WSW 19:04:44 61° NNW 19:05:10 53° NNE
Cosmos 1980 Rocket 2.7 19:00:34 10° SW 19:06:10 63° WNW 19:11:50 10° NNE
APEX 3.8 19:03:50 10° NNW 19:05:43 30° N 19:05:43 30° N
Lacrosse 5 rocket 3.1 19:03:48 10° WNW 19:07:39 31° SW 19:11:00 12° S
Sich 1 3.8 19:04:14 10° SSW 19:08:30 54° WNW 19:12:50 10° N
Cosmos 1302 Rocket 3.8 19:08:55 10° SSW 19:14:06 80° ESE 19:19:20 10° NNE
Cosmos 2322 Rocket 2.6 19:10:28 10° S 19:15:03 38° ESE 19:15:03 38° ESE
Cosmos 2227 4.3 19:10:21 10° NNW 19:16:10 82° WSW 19:20:30 18° SSE
Cosmos 968 Rocket 3.4 19:12:13 10° NNW 19:17:28 66° ENE 19:19:11 42° SE
Cosmos 1437 4.4 19:16:33 10° NNW 19:19:10 31° W 19:21:07 15° SSW
Cosmos 1707 Rocket 4.4 19:15:25 10° NNW 19:19:42 51° W 19:23:55 10° S
Cosmos 1867 4.0 19:17:56 10° SW 19:23:19 60° NW 19:28:07 13° NNE
ERS-2 4.3 19:20:22 10° N 19:23:28 26° WNW 19:26:33 10° SW
Cosmos 1633 Rocket 3.2 19:20:11 10° SSW 19:24:34 72° W 19:29:01 10° N
Meteor 1-20 Rocket 4.4 19:23:05 10° SSW 19:28:31 69° WNW 19:33:59 10° N
USA 234 3.5 19:29:23 22° NE 19:33:47 65° NNW 19:40:14 10° WSW
SL-16 R/B 2.0 19:29:20 10° SSW 19:34:58 70° ESE 19:37:14 37° NE
Meteor 1-19 Rocket 4.4 19:31:59 10° NNW 19:38:00 79° W 19:42:35 17° S
USA 305 3.4 19:34:46 10° WSW 19:38:56 52° NNW 19:39:14 51° N
MOS 1 4.2 19:39:28 41° SSE 19:41:35 87° ENE 19:47:19 10° NNW
Resurs 01 Rocket 3.4 19:44:38 21° N 19:44:38 21° N 19:46:17 10° N
SeaSat 1 4.4 19:39:16 10° N 19:43:24 28° NW 19:47:32 10° WSW
Ariane Rocket 2.9 19:43:24 59° S 19:44:25 86° WSW 19:49:34 10° NNW
SME Rocket 4.5 19:35:35 10° NNE 19:45:24 83° ESE 19:51:35 10° SSW
DMSP B5D2-2 4.5 19:40:39 10° N 19:45:50 62° WNW 19:50:58 10° SSW
USA 307 3.6 19:42:39 10° W 19:46:43 49° NNW 19:46:43 49° NNW
Nadezhda 3 Rocket 4.3 19:42:19 10° NNW 19:48:36 66° W 19:54:52 10° S
Cosmos 2154 Rocket 4.3 19:42:30 10° SSW 19:48:42 68° W 19:54:55 10° N
IRS-1A Rocket 4.3 19:47:27 38° S 19:49:43 79° WSW 19:55:22 10° NNW
Cosmos 2263 Rocket 3.3 19:47:02 10° NW 19:52:12 40° WSW 19:55:56 18° SSW
USA 306 3.8 19:49:06 10° W 19:52:53 44° NW 19:52:53 44° NW
Cosmos 1470 Rocket 4.1 19:52:16 10° SSW 19:56:47 58° WNW 20:01:07 10° N
USA 308 4.0 19:53:01 10° W 19:56:37 42° NW 19:56:37 42° NW
Meteor 1-14 Rocket 4.2 19:53:33 10° SSW 19:59:11 79° WNW 20:04:46 10° N
OBJECT-B 3.9 20:05:18 13° NNW 20:05:18 13° NNW 20:05:44 10° NNW
SJ-6B 4.2 20:04:15 38° W 20:04:15 38° W 20:08:05 10° NNW
Meteor 2-4 Rocket 3.9 20:05:44 10° NNW 20:11:28 71° W 20:11:52 68° SW
Cosmos 1461 4.4 20:10:41 10° SW 20:13:50 38° WSW 20:13:50 38° WSW
BREEZE-M DEB (TANK) 4.2 20:00:56 10° W 20:17:06 86° S 20:17:21 83° SE
Cosmos 1844 4.5 20:13:56 10° NNW 20:17:59 44° N 20:17:59 44° N
Cosmos 44 Rocket 4.2 20:16:08 10° NW 20:19:59 49° NW 20:19:59 49° NW
Cosmos 2278 Rocket 4.2 20:24:36 10° N 20:26:31 17° N 20:26:31 17° N
Cosmos 1844 Rocket 3.5 20:25:01 10° NNW 20:28:45 44° NNW 20:28:45 44° NNW
Cosmos 2341 Rocket 4.4 20:31:12 37° SW 20:33:34 59° WNW 20:39:48 10° N
Cosmos 2322 Rocket 4.0 20:54:31 10° WSW 20:57:03 24° WSW 20:57:03 24° WSW
USA 234 4.4 21:16:44 37° NNW 21:16:44 37° NNW 21:22:05 10° WNW
SL-16 R/B 4.2 21:15:06 10° W 21:19:19 24° NW 21:19:19 24° NW
